weather.gov     
National Weather Service

Regional Weather Roundup
NWS Homepage
This page is being discontinued on March 12, 2014.
The same data is available at this site. Please update your bookmarks.
Thank you, and we apologize for the inconvenience.
Please send an email to SR-SRH.Webmaster@noaa.gov with any concerns.


Current Version
Previous Version:    01  02  03  04  05  06  07  08  09  10  11  12  13  14  15  16  17  18  19  20  21  22  23  24  25  26  27  28  29  30  
   31  32  33  34  35  36  37  38  39  40  41  42  43  44  45  46  47  48  49  50  51  52  53  54  55  56  57  58  59  60  
[Printable]
303
ASUS46 KPDT 261310
RWRPDT
PENDLETON REGIONAL WEATHER ROUNDUP
NATIONAL WEATHER SERVICE PENDLETON OREGON
600 AM PDT SAT JUL 26 2014

NOTE: FAIR INDICATES FEW OR NO CLOUDS BELOW 12,000 FEET WITH NO
SIGNIFICANT WEATHER AND/OR OBSTRUCTIONS TO VISIBILITY.

# INDICATES UNOFFICIAL STATION AND DATA

WAZ520-261410-
EAST SLOPES OF WASHINGTON CASCADES

CITY            SKY/WX      TMP DP  RH  WIND    PRES   REMARKS
#BUMPING DAM    N/A         44  N/A N/A CALM    N/A
#CLE ELUM HS    N/A         47  46  96  CALM    30.07S
#CLE ELUM LAKE  N/A         51  47  86  CALM    30.03R
#CLIFFDEL 2NW   N/A         46  45  96  N1      N/A
#EASTON DOT     N/A         49  49  100 SE1     N/A
#ELK HTS DOT    N/A         51  51  100 W8      N/A
#GLENWOOD       N/A         42  41  96  CALM    30.07R
#MANASTASH CYN  N/A         51  43  74  CALM    30.08S
#NELSON         N/A         47  44  89  CALM    30.07S
#NELSON 3SW     N/A         46  42  86  CALM    30.25S
#PEOH POINT     N/A         50  46  86  SW13    N/A
#RONALD 2NW     N/A         50  46  86  CALM    30.00S
#SOUTH BLEWITT  N/A         45  44  96  CALM    N/A
#TROUT LAKE 1NE N/A         47  44  89  W2      30.07R
$$

WAZ521-261410-
SIMCOE HIGHLANDS

CITY            SKY/WX      TMP DP  RH  WIND    PRES   REMARKS
#BICKLETON HS   N/A         57  30  35  W6      30.12S
#SATUS PASS DOT N/A         53  29  39  CALM    N/A
#CENTERVILLE 1SWN/A         46  42  86  CALM    30.02R
#GOLDENDALE 1NE N/A         47  41  79  N3      N/A
#GOLDENDALE 1S  N/A         45  42  89  CALM    30.07R
#GOLDENDALE 5WNWN/A         49  44  83  CALM    30.04
#GOODNOE HILLS  N/A         59  52  78  W3      30.01R
#LYLE 6NE       N/A         55  52  90  CALM    30.02S
$$

WAZ026-261410-
KITTITAS VALLEY

CITY            SKY/WX      TMP DP  RH  WIND    PRES   REMARKS
ELLENSBURG AP   CLEAR       54  48  80  E3      30.10R
#ELLENSBURG CWU N/A         56  50  80  NW3     29.99S
#ELLENSBURG 3NE N/A         49  46  89  CALM    30.10R
#ELLENSBURG 1E  N/A         49  45  86  CALM    N/A
#RYEGRASS DOT   N/A         52  50  93  W7      N/A
#THORP 6N       N/A         52  49  89  N7      30.06R
$$

WAZ027-261410-
YAKIMA VALLEY

CITY            SKY/WX      TMP DP  RH  WIND    PRES   REMARKS
YAKIMA AIRPORT  CLEAR       57  49  75  W7      30.08R
YAKIMA-VAGABOND CLEAR       59  48  67  E12     30.09R
#COWICHE 1N     N/A         59  48  67  NW5     30.21R
#DONALD 2NE     N/A         67  43  42  SW1     30.30S
#GRANDVIEW      N/A         53  47  80  CALM    30.05R
#MABTON         N/A         53  46  77  CALM    30.05R
#MOXEE 2E       N/A         54  48  80  CALM    30.02R
#NACHES 2SW     N/A         58  50  75  W7      30.08S
#TERRACE HTS    N/A         55  49  80  CALM    29.98S
#TOPPENISH      N/A         56  50  80  CALM    29.95R
#WAPATO 4NE     N/A         67  43  42  SW1     30.30S
#W YAKIMA       N/A         60  51  72  N2      30.03R
#WHITE SWAN 5E  N/A         49  46  89  CALM    30.03S
#WILEY CITY 3W  N/A         49  44  83  CALM    30.07R
$$

WAZ028-261410-
LOWER COLUMBIA BASIN...WASHINGTON

CITY            SKY/WX      TMP DP  RH  WIND    PRES   REMARKS
PASCO           CLEAR       50  49  96  N5      30.06R
PROSSER AWOS    N/A         52  46  80  N1      30.09R
RICHLAND AWOS   CLEAR       54  50  86  CALM    30.06R
#BASIN CITY 5SW N/A         51  47  86  CALM    30.05R
#BENTON CITY    N/A         56  48  74  CALM    29.94R
#CONNELL 5N     N/A         51  40  66  NE1     30.03R
#CONNELL 5NW    N/A         51  26  37  CALM    29.99R
#ELTOPIA        N/A         53  46  77  CALM    30.00R
#ELTOPIA 6NW    N/A         59  46  62  CALM    29.02R
#KENNEWICK 3S   N/A         61  48  62  S3      30.02S
#PASCO-BROADMOORN/A         55  49  80  NE1     29.94R
#PATERSON       N/A         57  48  72  NE1     30.02R
#PROSSER DOT    N/A         54  50  86  CALM    N/A
#PROSSER        N/A         62  47  58  CALM    30.02R
#SAGEMOOR 2W    N/A         56  47  72  CALM    29.88R
#TOUCHET 2S     N/A         43  41  93  CALM    30.03R
#WEST PASCO     N/A         54  46  74  CALM    30.04R
$$

WAZ029-261410-
FOOTHILLS OF THE BLUES...WASHINGTON

CITY            SKY/WX      TMP DP  RH  WIND    PRES   REMARKS
WALLA WALLA AP  CLEAR       58  40  51  E7      30.08R
#COLLEGE PLACE  N/A         58  41  53  E2      30.06R
#DAYTON SCHOOL  N/A         53  39  59  CALM    30.07R
#LOWDEN 2SE     N/A         47  44  89  E2      30.02R
#PLEASANT VIEW 1N/A         58  44  60  CALM    30.06R
#PRESCOTT       N/A         50  42  74  CALM    30.03R
#SUDBURY        N/A         51  N/A N/A NE3     N/A
#WHITMAN COLLEGEN/A         61  41  48  E2      30.08R
#WAITSBURG 8N   N/A         49  29  46  CALM    29.94S
#WALLA WALLA 5E N/A         64  36  35  S15     N/A
#WALLA WALLA U  N/A         58  44  60  CALM    30.02S
#WHITMAN MISSIONN/A         49  45  86  CALM    30.06R
$$

WAZ030-261410-
BLUE MOUNTAINS...WASHINGTON

CITY            SKY/WX      TMP DP  RH  WIND    PRES   REMARKS
$$

ORZ009-041-WAZ024-261410-
COLUMBIA RIVER GORGE

CITY            SKY/WX      TMP DP  RH  WIND    PRES   REMARKS
HOOD RIVER AP   CLEAR       48  45  89  CALM    30.10S
THE DALLES AP   CLEAR       57  50  77  CALM    30.07R
#ARLINGTON AIRPON/A         60  51  72  SW3     N/A
#ARLINGTON HS   N/A         60  50  69  SW1     29.95R
#CELILO DOT     N/A         62  48  60  CALM    N/A
#MARYHILL       N/A         59  49  69  CALM    N/A
#MOSIER 1S      N/A         56  48  74  CALM    30.15S
#MURDOCK        N/A         62  56  81  W8      30.08R
#RUFUS DOT      N/A         N/A N/A N/A N1      N/A

$$

ORZ510-261410-
NORTH CENTRAL OREGON

CITY            SKY/WX      TMP DP  RH  WIND    PRES   REMARKS
#CHENOWITH 1W   N/A         55  51  86  W23     N/A
#COW CYN RST AREN/A         59  39  47  CALM    N/A
#GRASS VALLEY 1SN/A         51  40  66  CALM    30.05R
#KENT DOT       N/A         53  32  45  S1      N/A
#MAUPIN SCHOOL  N/A         54  44  69  CALM    30.12R
#MORO SCHOOL    N/A         55  48  77  SW5     30.10R
#SHANIKO 5WSW   N/A         58  30  34  SW1     N/A
#SHANIKO 4NW    N/A         59  33  37  NE5     30.15R
#TYGH VALLEY 2NEN/A         50  44  80  CALM    30.06R
#WAPANITIA AIRPON/A         49  43  80  CALM    30.05R
#WASCO 5NE      N/A         56  47  72  W5      30.02S
$$

ORZ511-261410-
CENTRAL OREGON

CITY            SKY/WX      TMP DP  RH  WIND    PRES   REMARKS
BEND AIRPORT    CLEAR       50  45  83  CALM    30.16S
MADRAS AIRPORT  CLEAR       46  43  89  S3      30.14R
REDMOND AIRPORT CLEAR       44  41  89  CALM    30.14R
#BEND 6E        N/A         50  42  74  CALM    29.99R
#BEND 1SW       N/A         45  40  82  W1      N/A
#BEND-AWBREY    N/A         54  45  71  N2      30.01S
#BEND-KIM LN    N/A         53  46  77  SW6     30.12S
#CROOKED RVR RANN/A         50  45  83  NE12    30.02S
#CULVER         N/A         49  44  83  CALM    30.09S
#LAKE BILLY CHINN/A         53  39  59  CALM    30.17S
#POWELL BUTTE 3EN/A         47  39  74  SE2     N/A
#POWELL BUTTE   N/A         52  40  63  SW2     29.78R
#PRINEVILLE 3N  N/A         48  40  74  CALM    30.00S


ORZ509-261410-
EAST SLOPES OF OREGON CASCADES

CITY            SKY/WX      TMP DP  RH  WIND    PRES   REMARKS
#BLUE BOX PASS  N/A         50  -1  12  CALM    N/A
#BLACK BUTTE RNCN/A         45  42  89  CALM    30.05R
#CAMP SHERMAN   N/A         40  38  92  CALM    30.09R
#LA PINE DOT    N/A         38  36  92  CALM    N/A
#LA PINE 4NW    N/A         35  31  85  CALM    30.09S
#LAVA BUTTE DOT N/A         42  40  93  CALM    N/A
#SISTERS AIRPOR N/A         42  42  100 CALM    30.13R
#SISTERS ODOT   N/A         42  N/A N/A CALM    N/A
#SISTERS 3N     N/A         42  32  67  CALM    30.16S
#SUNRIVER       N/A         42  39  89  CALM    29.93R
#SUNRIVER AP    N/A         39  37  92  CALM    30.01S
#SUTTLE LK DOT  N/A         42  42  100 W7      N/A
#TUMALO 3W      N/A         57  46  67  SW3     29.90S
#WANOGA BUTTE D N/A         55  31  40  W1      N/A

$$

ORZ044-261410-
LOWER COLUMBIA BASIN...OREGON

CITY            SKY/WX      TMP DP  RH  WIND    PRES   REMARKS
HERMISTON       CLEAR       50  44  80  SE3     30.06R
#BOARDMAN SCHOOLN/A         69  53  57  CALM    30.05R
#BOARDMAN 3W    N/A         54  50  86  CALM    29.76R
#BOARDMAN 8SW   N/A         56  48  74  SW2     30.04R
#IONE SCHOOL    N/A         54  41  61  CALM    30.06S
#IRRIGON 4NW    N/A         57  50  77  E6      N/A
#UMATILLA SCHOOLN/A         51  50  96  CALM    30.10F
#UMATILLA       N/A         55  44  66  CALM    30.03R
$$

ORZ507-261410-
NORTHERN FOOTHILLS OF THE BLUES

CITY            SKY/WX      TMP DP  RH  WIND    PRES   REMARKS
PENDLETON AIRPT CLEAR       52  41  66  E7      30.08R
#ADAMS 3WNW     N/A         50  41  71  CALM    30.05R
#ATHENA         N/A         54  42  64  CALM    30.07R
#HELIX SCHOOL   N/A         46  39  76  CALM    30.04R
#HELIX 3N       N/A         56  43  62  S3      30.06R
#HOLDMAN 5SE    N/A         52  42  69  CALM    30.08R
#HOLDMAN 6E     N/A         50  43  77  SW2     29.86R
#M-F FERNDALE   N/A         53  43  69  CALM    30.06R
#M-F GROVE ELEM N/A         56  38  51  CALM    30.05R
#M-FREEWATER 5SEN/A         58  44  60  CALM    30.08R
#PDT AQUATIC CTRN/A         52  41  66  E1      30.01S
#PENDLETON DNTN N/A         52  38  59  E1      30.04S
#PENDLETON 5NE  N/A         47  42  83  CALM    30.05R
#PDT SUNRIDGE   N/A         47  43  86  CALM    30.10R
#PENDLETON 7NW  N/A         51  42  71  CALM    30.01R
#PILOT ROCK     N/A         53  38  57  CALM    30.11R
#TUTUILLA       N/A         51  46  83  CALM    29.99R
#UMAPINE 2E     N/A         52  46  80  CALM    30.03R
#WESTON SCHOOL  N/A         57  40  53  W2      30.07R

$$

ORZ508-261410-
SOUTHERN FOOTHILLS OF THE BLUES

CITY            SKY/WX      TMP DP  RH  WIND    PRES   REMARKS
#AJAX           N/A         N/A N/A N/A CALM    30.12R
#CONDON SCHOOL  N/A         55  41  59  CALM    30.09R
#CONDON 5W      N/A         57  35  43  NW3     30.10S
#HEPPNER EOC    N/A         54  41  61  E7      30.00R
#HEPPNER 4NE    N/A         56  41  57  CALM    30.03R
#LEXINGTON 2SE  N/A         55  43  64  SE7     30.06S
#MIKKALO        N/A         55  38  53  SE1     30.09R
#OLEX 4N        N/A         57  43  59  SW7     30.06R
#RUGGS 5NE      N/A         53  36  52  SE1     30.30R
#RUGGS 2SW      N/A         57  40  53  S8      30.08R

$$

ORZ502-503-261410-
BLUE MOUNTAINS

CITY            SKY/WX      TMP DP  RH  WIND    PRES   REMARKS
MEACHAM         CLEAR       36  34  92  CALM    30.16S
#BATTLE MTN DOT N/A         47  42  83  CALM    N/A
#HARDMAN 10S    N/A         52  40  63  CALM    30.20S
#HEPPNER 15SE   N/A         48  39  71  CALM    30.08S
#LADD CYN SMT   N/A         44  34  68  S1      N/A
#LADD CREEK ODOTN/A         46  36  68  S5      N/A
#LONG CREEK HS  N/A         49  42  77  CALM    30.11R
#PIKES PEAK     N/A         63  36  36  SW7     27.99S
#TOLLGATE       N/A         50  42  74  CALM    30.11S
#TROY SCHOOL    N/A         51  44  77  CALM    29.95R
#UKIAH          N/A         36  34  92  CALM    30.15R
#WESTON 4E      N/A         56  40  55  SE2     29.98R
$$

ORZ505-261410-
JOHN DAY BASIN

CITY            SKY/WX      TMP DP  RH  WIND    PRES   REMARKS
JOHN DAY        CLEAR       55  37  51  E8      30.17R
#JOHN DAY KJDY  N/A         50  43  77  CALM    30.09F
#MONUMENT HS    N/A         49  40  71  CALM    29.93R
#MT. VERNON 5SE N/A         54  40  59  CALM    30.13R
#WINLOCK        N/A         52  40  63  CALM    30.21R
$$

ORZ506-261410-
OCHOCO AND JOHN DAY HIGHLANDS

CITY            SKY/WX      TMP DP  RH  WIND    PRES   REMARKS
#BUCK CREEK DOT N/A         54  42  64  CALM    N/A
#HORSE RIDGE DO N/A         37  35  92  CALM    N/A
#KEYES SMT DOT  N/A         54  36  50  N3      N/A
#PINE MTN OBS   N/A         59  35  40  SE2     N/A
#PRAIRIE CITY   N/A         40  36  85  CALM    30.27R
#SENECA 9NW     N/A         36  32  85  CALM    30.03S
$$

ORZ049-261410-
GRANDE RONDE VALLEY

CITY            SKY/WX      TMP DP  RH  WIND    PRES   REMARKS
LA GRANDE       CLEAR       45  30  55  CALM    30.15R
#COVE           N/A         45  39  79  NE1     30.06R
#COVE SCHOOL    N/A         44  37  76  CALM    30.12R
#COVE 6NW       N/A         42  35  76  CALM    30.13R
#ELGIN 3N       N/A         42  37  82  CALM    29.88R
#ELGIN 1E       N/A         43  38  82  CALM    N/A
#IMBLER SCHOOL  N/A         56  42  59  CALM    30.11R
#ISLAND CITY 4N N/A         43  39  86  CALM    30.03R
#LADD CYN DOT   N/A         51  35  54  SE6     N/A
#UNION 1S       N/A         44  38  79  CALM    29.98R
$$

ORZ050-261410-
WALLOWA COUNTY

CITY            SKY/WX      TMP DP  RH  WIND    PRES   REMARKS
#ENTERPRISE AP  N/A         66  35  32  CALM    29.99S
#ENTERPRISE HS  N/A         41  37  86  CALM    30.17R
#IMNAHA SCHOOL  N/A         53  41  64  CALM    30.12R
#JOSEPH 3N      N/A         39  34  82  CALM    30.18R
#JOSEPH 3W      N/A         53  35  50  CALM    30.02R
#LOSTINE        N/A         40  36  85  CALM    29.88R
#MT HOWARD 8000 N/A         52  24  33  CALM    30.36S
#PROMISE 1S     N/A         47  41  79  CALM    30.15R
#SHEEP RDG 7000 N/A         55  27  34  CALM    30.04S
#WALLOWA SCHOOL N/A         41  39  93  CALM    31.00R



$$




U.S. Dept. of Commerce
NOAA National Weather Service
1325 East West Highway
Silver Spring, MD 20910
E-mail: w-nws.webmaster@noaa.gov
Page last modified: May 16, 2007
NATIONAL WEATHER SERVICE: for Safety, for Work, for Fun - FOR LIFE